Location: Cleveland
(41.4990°N, 81.6960°W)
Time: 14:06:52
(UTC-04:00)

ISS - Visible Passes

Search period start: 24 September 2021 00:00
Search period end: 04 October 2021 00:00
Orbit: 419 x 423 km, 51.6° (Epoch: 24 September)

Date Brightness Start Highest point End Pass type
(mag) Time Alt. Az. Time Alt. Az. Time Alt. Az.
24 Sep -1.2 21:15:11 10° NW 21:17:11 15° N 21:17:29 15° N visible
25 Sep -1.2 20:28:01 10° NW 20:30:02 15° N 20:32:02 10° NE visible
25 Sep -0.3 22:05:08 10° NW 22:05:18 11° NNW 22:05:18 11° NNW visible
26 Sep -1.3 19:40:43 10° NW 19:42:52 16° N 19:45:01 10° NNE visible
26 Sep -1.4 21:18:18 10° NNW 21:20:07 17° N 21:20:07 17° N visible
27 Sep -1.4 20:31:24 10° NNW 20:33:33 16° N 20:34:56 13° NE visible
27 Sep -0.2 22:07:54 10° NW 22:07:55 10° NW 22:07:55 10° NW visible
28 Sep -1.3 19:44:22 10° NNW 19:46:22 15° N 19:48:23 10° NE visible
28 Sep -1.5 21:21:06 10° NW 21:22:45 21° NNW 21:22:45 21° NNW visible
29 Sep -2.0 20:34:16 10° NW 20:36:58 22° NNE 20:37:37 20° NE visible
30 Sep -1.7 19:47:26 10° NNW 19:49:50 18° NNE 19:52:15 10° ENE visible
30 Sep -1.6 21:23:52 10° NW 21:25:30 26° NW 21:25:30 26° NW visible
01 Oct -3.1 20:37:00 10° NW 20:40:12 39° NNE 20:40:27 39° NE visible
02 Oct -2.5 19:50:10 10° NW 19:53:09 28° NNE 19:55:27 14° ENE visible
02 Oct -1.4 21:26:52 10° WNW 21:28:27 24° WNW 21:28:27 24° WNW visible
03 Oct -3.8 20:39:50 10° WNW 20:43:13 79° SW 20:43:33 68° SSE visible
